SLG Weather Reports


time (UTC)temp
C
wind
direction
speed
KPH
gust
KPH
rain 1hr
cm
rain 24hr
cm
rain mn
cm
humidity
%
barometer
mb
20260506130211 17 232 3.2 0.0 0.00 0.00 0.00 62 1003.2
20260506123210 17 303 6.4 0.0 0.00 0.00 0.00 60 1003.2
20260506120210 17 138 4.8 0.0 0.00 0.00 0.00 59 1003.0
20260506113217 16 113 3.2 0.0 0.00 0.00 0.00 61 1003.2
20260506110210 16 61 4.8 0.0 0.00 0.00 0.00 67 1003.5
20260506100213 14 38 4.8 0.0 0.00 0.00 0.00 74 1003.7
20260506093211 14 238 0.0 0.0 0.00 0.00 0.00 73 1004.0
20260506090211 14 275 4.8 0.0 0.00 0.00 0.00 75 1004.1
20260506083211 13 322 3.2 0.0 0.00 0.00 0.00 82 1003.9
20260506080212 12 318 4.8 0.0 0.00 0.00 0.00 86 1003.9
20260506073211 11 11 1.6 0.0 0.00 0.00 0.00 89 1004.2
20260506070212 11 5 3.2 0.0 0.00 0.00 0.00 91 1004.4
20260506060210 9 9 3.2 0.0 0.00 0.00 0.00 91 1004.0
20260506050211 8 194 0.0 0.0 0.00 0.00 0.00 89 1004.3
20260506043211 8 194 0.0 0.0 0.00 0.00 0.00 88 1004.5
20260506040211 8 194 0.0 0.0 0.00 0.00 0.00 88 1004.7
20260506033211 9 194 0.0 0.0 0.00 0.00 0.00 88 1004.9
20260506030212 9 194 0.0 0.0 0.00 0.00 0.00 88 1005.2
20260506023211 9 199 0.0 0.0 0.00 0.00 0.00 88 1005.4
20260506020212 9 198 0.0 0.0 0.00 0.00 0.00 88 1005.6
20260506013211 10 198 0.0 0.0 0.00 0.00 0.00 87 1005.8
20260506010212 10 199 8.0 0.0 0.00 0.00 0.00 87 1006.3
20260506003209 10 199 0.0 0.0 0.00 0.00 0.00 86 1006.1
20260506000211 10 199 1.6 0.0 0.00 0.00 0.00 86 1006.3
20260505233209 10 207 4.8 0.0 0.00 0.00 0.00 85 1006.5
20260505230209 10 188 8.0 0.0 0.00 0.00 0.00 84 1006.7
20260505223210 11 240 9.7 0.0 0.00 0.00 0.00 83 1006.7
20260505220209 11 240 11.3 0.0 0.00 0.00 0.00 82 1006.6
20260505213211 11 239 11.3 0.0 0.00 0.00 0.03 80 1006.7
20260505210215 12 227 12.9 0.0 0.00 0.00 0.03 80 1006.7
20260505203209 12 218 16.1 0.0 0.00 0.00 0.03 78 1006.5
20260505200210 12 295 20.9 0.0 0.00 0.00 0.03 77 1006.6
20260505193209 13 206 12.9 0.0 0.00 0.00 0.03 76 1006.5
20260505190215 14 240 16.1 0.0 0.00 0.00 0.03 77 1006.1
20260505183212 15 304 20.9 0.0 0.00 0.00 0.03 71 1005.5
20260505180211 16 263 16.1 0.0 0.00 0.00 0.03 66 1005.1
20260505173210 16 312 17.7 0.0 0.00 0.00 0.03 60 1005.0
20260505170210 17 313 12.9 0.0 0.00 0.00 0.03 56 1004.6
20260505163211 18 298 9.7 0.0 0.00 0.00 0.03 56 1004.6
20260505153210 17 200 8.0 0.0 0.00 0.00 0.03 64 1004.5
20260505150215 17 27 4.8 0.0 0.00 0.00 0.03 64 1004.6
20260505140210 16 315 16.1 0.0 0.00 0.00 0.03 71 1004.9